| time (UTC) | temp F | wind direction | speed MPH | gust MPH | rain 1hr in | rain 24hr in | rain mn in | humidity % | barometer mb |
| 20260906100957 | 79 | 181 | 0.0 | 0.0 | 0.00 | 0.00 | 0.00 | 87 | 1011.3 |
| 20260906100457 | 79 | 181 | 0.0 | 1.0 | 0.00 | 0.00 | 0.00 | 87 | 1011.3 |
| 20260906100027 | 79 | 181 | 0.0 | 0.0 | 0.00 | 0.00 | 0.00 | 87 | 1011.3 |
| 20260906095457 | 79 | 181 | 0.0 | 1.0 | 0.00 | 0.00 | 0.00 | 87 | 1011.3 |
| 20260906094957 | 79 | 181 | 0.0 | 1.0 | 0.00 | 0.00 | 0.00 | 87 | 1011.3 |
| 20260906094511 | 79 | 181 | 0.0 | 0.0 | 0.00 | 0.00 | 0.00 | 87 | 1011.3 |
| 20260906093958 | 79 | 181 | 0.0 | 0.0 | 0.00 | 0.00 | 0.00 | 86 | 1011.2 |
| 20260906093456 | 79 | 181 | 0.0 | 0.0 | 0.00 | 0.00 | 0.00 | 86 | 1011.2 |
| 20260906093021 | 80 | 181 | 0.0 | 0.0 | 0.00 | 0.00 | 0.00 | 86 | 1011.2 |
| 20260906092457 | 80 | 181 | 0.0 | 0.0 | 0.00 | 0.00 | 0.00 | 86 | 1011.2 |
| 20260906091958 | 80 | 181 | 0.0 | 0.0 | 0.00 | 0.00 | 0.00 | 86 | 1011.1 |
| 20260906091511 | 80 | 181 | 0.0 | 0.0 | 0.00 | 0.00 | 0.00 | 86 | 1011.1 |
| 20260906090957 | 80 | 181 | 0.0 | 0.0 | 0.00 | 0.00 | 0.00 | 86 | 1011.1 |
| 20260906090457 | 80 | 181 | 0.0 | 1.0 | 0.00 | 0.00 | 0.00 | 86 | 1011.1 |
| 20260906090022 | 80 | 181 | 0.0 | 1.0 | 0.00 | 0.00 | 0.00 | 85 | 1011.1 |
| 20260906084957 | 80 | 181 | 0.0 | 1.0 | 0.00 | 0.00 | 0.00 | 85 | 1011.0 |
| 20260906084511 | 80 | 181 | 0.0 | 1.0 | 0.00 | 0.00 | 0.00 | 85 | 1011.0 |
| 20260906083958 | 80 | 181 | 0.0 | 0.0 | 0.00 | 0.00 | 0.00 | 85 | 1011.0 |
| 20260906083457 | 80 | 181 | 0.0 | 0.0 | 0.00 | 0.00 | 0.00 | 85 | 1011.0 |
| 20260906083012 | 80 | 181 | 0.0 | 0.0 | 0.00 | 0.00 | 0.00 | 85 | 1011.1 |
| 20260906082456 | 80 | 181 | 0.0 | 0.0 | 0.00 | 0.00 | 0.00 | 85 | 1011.2 |
| 20260906081957 | 80 | 181 | 0.0 | 1.0 | 0.00 | 0.00 | 0.00 | 85 | 1011.2 |
| 20260906081512 | 80 | 181 | 0.0 | 1.0 | 0.00 | 0.00 | 0.00 | 85 | 1011.2 |
| 20260906080958 | 80 | 181 | 0.0 | 0.0 | 0.00 | 0.00 | 0.00 | 84 | 1011.2 |
| 20260906080457 | 80 | 181 | 0.0 | 0.0 | 0.00 | 0.00 | 0.00 | 84 | 1011.1 |
| 20260906080014 | 80 | 181 | 0.0 | 0.0 | 0.00 | 0.00 | 0.00 | 84 | 1011.2 |
| 20260906075456 | 80 | 181 | 0.0 | 1.0 | 0.00 | 0.00 | 0.00 | 84 | 1011.1 |
| 20260906074511 | 81 | 181 | 0.0 | 1.0 | 0.00 | 0.00 | 0.00 | 84 | 1011.2 |
| 20260906073957 | 81 | 181 | 0.0 | 1.0 | 0.00 | 0.00 | 0.00 | 84 | 1011.3 |
| 20260906073456 | 81 | 181 | 0.0 | 0.0 | 0.00 | 0.00 | 0.00 | 83 | 1011.3 |
| 20260906071958 | 81 | 181 | 0.0 | 1.0 | 0.00 | 0.00 | 0.00 | 83 | 1011.4 |
| 20260906071510 | 81 | 181 | 0.0 | 1.0 | 0.00 | 0.00 | 0.00 | 83 | 1011.5 |
| 20260906070956 | 81 | 181 | 0.0 | 2.0 | 0.00 | 0.00 | 0.00 | 82 | 1011.5 |
| 20260906070456 | 81 | 181 | 1.0 | 2.0 | 0.00 | 0.00 | 0.00 | 82 | 1011.4 |
| 20260906070011 | 81 | 200 | 0.0 | 3.0 | 0.00 | 0.00 | 0.00 | 82 | 1011.5 |
| 20260906065456 | 81 | 192 | 1.0 | 3.0 | 0.00 | 0.00 | 0.00 | 82 | 1011.6 |
| 20260906064956 | 81 | 182 | 1.0 | 3.0 | 0.00 | 0.00 | 0.00 | 82 | 1011.6 |
| 20260906064511 | 81 | 208 | 0.0 | 3.0 | 0.00 | 0.00 | 0.00 | 82 | 1011.6 |
| 20260906063955 | 81 | 222 | 0.0 | 2.0 | 0.00 | 0.00 | 0.00 | 82 | 1011.6 |
| 20260906063455 | 81 | 222 | 0.0 | 2.0 | 0.00 | 0.00 | 0.00 | 81 | 1011.7 |
| 20260906063012 | 81 | 150 | 0.0 | 2.0 | 0.00 | 0.00 | 0.00 | 81 | 1011.7 |
| 20260906062456 | 82 | 202 | 0.0 | 2.0 | 0.00 | 0.00 | 0.00 | 81 | 1011.6 |
| 20260906061956 | 82 | 209 | 1.0 | 2.0 | 0.00 | 0.00 | 0.00 | 81 | 1011.6 |
| 20260906061511 | 82 | 182 | 0.0 | 3.0 | 0.00 | 0.00 | 0.00 | 81 | 1011.5 |
| 20260906060957 | 82 | 191 | 0.0 | 2.0 | 0.00 | 0.00 | 0.00 | 81 | 1011.5 |
| 20260906060455 | 82 | 167 | 0.0 | 2.0 | 0.00 | 0.00 | 0.00 | 80 | 1011.5 |
| 20260906060024 | 82 | 171 | 0.0 | 3.0 | 0.00 | 0.00 | 0.00 | 80 | 1011.6 |
| 20260906055501 | 82 | 159 | 1.0 | 3.0 | 0.00 | 0.00 | 0.00 | 80 | 1011.5 |
| 20260906055001 | 82 | 103 | 1.0 | 3.0 | 0.00 | 0.00 | 0.00 | 80 | 1011.6 |
| 20260906054516 | 82 | 171 | 2.0 | 3.0 | 0.00 | 0.00 | 0.00 | 80 | 1011.7 |
| 20260906053500 | 82 | 353 | 2.0 | 6.0 | 0.00 | 0.00 | 0.00 | 80 | 1011.7 |
| 20260906053023 | 82 | 193 | 1.0 | 5.0 | 0.00 | 0.00 | 0.00 | 80 | 1011.6 |
| 20260906052003 | 82 | 214 | 1.0 | 3.0 | 0.00 | 0.00 | 0.00 | 80 | 1011.7 |
| 20260906051515 | 82 | 194 | 1.0 | 3.0 | 0.00 | 0.00 | 0.00 | 80 | 1011.6 |
| 20260906051001 | 82 | 166 | 0.0 | 2.0 | 0.00 | 0.00 | 0.00 | 80 | 1011.6 |
| 20260906050500 | 82 | 177 | 1.0 | 3.0 | 0.00 | 0.00 | 0.00 | 80 | 1011.7 |
| 20260906050027 | 82 | 353 | 1.0 | 3.0 | 0.00 | 0.00 | 0.00 | 80 | 1011.8 |
| 20260906045500 | 82 | 171 | 1.0 | 3.0 | 0.00 | 0.00 | 0.00 | 80 | 1011.7 |
| 20260906045000 | 82 | 135 | 1.0 | 3.0 | 0.00 | 0.00 | 0.00 | 80 | 1011.6 |
| 20260906044515 | 82 | 186 | 0.0 | 3.0 | 0.00 | 0.00 | 0.00 | 80 | 1011.6 |
| 20260906044002 | 81 | 150 | 0.0 | 2.0 | 0.00 | 0.00 | 0.00 | 81 | 1011.7 |
| 20260906043501 | 81 | 100 | 0.0 | 1.0 | 0.00 | 0.00 | 0.00 | 82 | 1011.7 |
| 20260906043023 | 81 | 100 | 0.0 | 1.0 | 0.00 | 0.00 | 0.00 | 82 | 1011.6 |
| 20260906042500 | 81 | 100 | 0.0 | 1.0 | 0.00 | 0.00 | 0.00 | 83 | 1011.7 |
| 20260906041516 | 81 | 100 | 0.0 | 0.0 | 0.00 | 0.00 | 0.00 | 83 | 1011.7 |
| 20260906040501 | 81 | 100 | 0.0 | 1.0 | 0.00 | 0.00 | 0.00 | 83 | 1011.7 |
| 20260906040027 | 81 | 100 | 0.0 | 1.0 | 0.00 | 0.00 | 0.00 | 83 | 1011.8 |
| 20260906035500 | 81 | 100 | 0.0 | 1.0 | 0.00 | 0.00 | 0.00 | 83 | 1011.8 |
| 20260906034517 | 81 | 100 | 0.0 | 1.0 | 0.00 | 0.00 | 0.00 | 83 | 1011.8 |
| 20260906033501 | 81 | 100 | 0.0 | 1.0 | 0.00 | 0.00 | 0.00 | 83 | 1011.8 |
| 20260906033025 | 81 | 100 | 0.0 | 1.0 | 0.00 | 0.00 | 0.00 | 83 | 1011.8 |
| 20260906032501 | 81 | 100 | 0.0 | 2.0 | 0.00 | 0.00 | 0.00 | 82 | 1011.8 |
| 20260906032001 | 81 | 91 | 0.0 | 1.0 | 0.00 | 0.00 | 0.00 | 82 | 1011.8 |
| 20260906031516 | 81 | 91 | 0.0 | 1.0 | 0.00 | 0.00 | 0.00 | 82 | 1011.8 |
| 20260906031001 | 81 | 104 | 0.0 | 1.0 | 0.00 | 0.00 | 0.00 | 82 | 1011.9 |
| 20260906030500 | 81 | 102 | 0.0 | 2.0 | 0.00 | 0.00 | 0.00 | 82 | 1011.7 |
| 20260906030029 | 81 | 102 | 1.0 | 2.0 | 0.00 | 0.00 | 0.00 | 81 | 1011.7 |
| 20260906025500 | 81 | 108 | 0.0 | 2.0 | 0.00 | 0.00 | 0.00 | 81 | 1011.5 |
| 20260906025001 | 81 | 91 | 0.0 | 2.0 | 0.00 | 0.00 | 0.00 | 81 | 1011.5 |
| 20260906024516 | 82 | 66 | 0.0 | 2.0 | 0.00 | 0.00 | 0.00 | 81 | 1011.5 |
| 20260906024001 | 82 | 66 | 1.0 | 3.0 | 0.00 | 0.00 | 0.00 | 80 | 1011.4 |
| 20260906023500 | 82 | 85 | 1.0 | 4.0 | 0.00 | 0.00 | 0.00 | 80 | 1011.3 |
| 20260906022500 | 82 | 87 | 1.0 | 4.0 | 0.00 | 0.00 | 0.00 | 80 | 1011.2 |
| 20260906022001 | 82 | 102 | 2.0 | 6.0 | 0.00 | 0.00 | 0.00 | 80 | 1011.1 |
| 20260906021516 | 82 | 58 | 2.0 | 6.0 | 0.00 | 0.00 | 0.00 | 80 | 1011.1 |
| 20260906021001 | 82 | 54 | 2.0 | 6.0 | 0.00 | 0.00 | 0.00 | 80 | 1011.0 |
| 20260906020500 | 82 | 69 | 2.0 | 6.0 | 0.00 | 0.00 | 0.00 | 80 | 1011.0 |
| 20260906020026 | 82 | 36 | 2.0 | 4.0 | 0.00 | 0.00 | 0.00 | 80 | 1010.8 |
| 20260906015500 | 82 | 89 | 2.0 | 3.0 | 0.00 | 0.00 | 0.00 | 80 | 1010.6 |
| 20260906015001 | 82 | 52 | 1.0 | 5.0 | 0.00 | 0.00 | 0.00 | 80 | 1010.6 |
| 20260906014515 | 82 | 22 | 1.0 | 3.0 | 0.00 | 0.00 | 0.00 | 80 | 1010.6 |
| 20260906014003 | 82 | 87 | 1.0 | 3.0 | 0.00 | 0.00 | 0.00 | 80 | 1010.6 |
| 20260906013027 | 82 | 7 | 1.0 | 5.0 | 0.00 | 0.00 | 0.00 | 80 | 1010.5 |
| 20260906012500 | 82 | 80 | 1.0 | 3.0 | 0.00 | 0.00 | 0.00 | 80 | 1010.4 |
| 20260906012001 | 82 | 97 | 1.0 | 3.0 | 0.00 | 0.00 | 0.00 | 79 | 1010.5 |
| 20260906011000 | 82 | 50 | 2.0 | 4.0 | 0.00 | 0.00 | 0.00 | 78 | 1010.3 |
| 20260906010500 | 82 | 358 | 1.0 | 4.0 | 0.00 | 0.00 | 0.00 | 78 | 1010.4 |
| 20260906010024 | 82 | 12 | 1.0 | 4.0 | 0.00 | 0.00 | 0.00 | 77 | 1010.4 |
| 20260906005459 | 83 | 33 | 2.0 | 4.0 | 0.00 | 0.00 | 0.00 | 77 | 1010.5 |
| 20260906005000 | 83 | 10 | 2.0 | 5.0 | 0.00 | 0.00 | 0.00 | 77 | 1010.6 |
| 20260906004000 | 83 | 8 | 1.0 | 2.0 | 0.00 | 0.00 | 0.00 | 76 | 1010.6 |
| 20260906003459 | 83 | 10 | 1.0 | 3.0 | 0.00 | 0.00 | 0.00 | 75 | 1010.7 |
| 20260906003018 | 83 | 31 | 2.0 | 4.0 | 0.00 | 0.00 | 0.00 | 74 | 1010.7 |
| 20260906002458 | 84 | 69 | 2.0 | 5.0 | 0.00 | 0.00 | 0.00 | 74 | 1010.7 |
| 20260906002000 | 85 | 49 | 3.0 | 7.0 | 0.00 | 0.00 | 0.00 | 72 | 1010.7 |
| 20260906001514 | 85 | 40 | 3.0 | 7.0 | 0.00 | 0.00 | 0.00 | 71 | 1010.8 |
| 20260906001000 | 85 | 44 | 2.0 | 5.0 | 0.00 | 0.00 | 0.00 | 71 | 1010.8 |
| 20260906000459 | 85 | 48 | 2.0 | 6.0 | 0.00 | 0.00 | 0.00 | 70 | 1010.8 |
| 20260906000023 | 86 | 10 | 2.0 | 6.0 | 0.00 | 0.00 | 0.00 | 70 | 1010.8 |
| 20260905235459 | 86 | 19 | 2.0 | 4.0 | 0.00 | 0.00 | 0.00 | 69 | 1010.9 |
| 20260905235000 | 86 | 27 | 1.0 | 4.0 | 0.00 | 0.00 | 0.00 | 70 | 1011.0 |
| 20260905234514 | 86 | 52 | 1.0 | 3.0 | 0.00 | 0.00 | 0.00 | 70 | 1011.0 |
| 20260905234000 | 86 | 52 | 1.0 | 3.0 | 0.00 | 0.00 | 0.00 | 70 | 1011.0 |
| 20260905233459 | 86 | 39 | 1.0 | 2.0 | 0.00 | 0.00 | 0.00 | 69 | 1011.1 |
| 20260905233023 | 86 | 63 | 1.0 | 2.0 | 0.00 | 0.00 | 0.00 | 69 | 1011.1 |
| 20260905232459 | 87 | 19 | 1.0 | 2.0 | 0.00 | 0.00 | 0.00 | 69 | 1011.1 |
| 20260905232003 | 87 | 358 | 0.0 | 2.0 | 0.00 | 0.00 | 0.00 | 69 | 1011.1 |
| 20260905231515 | 87 | 27 | 1.0 | 2.0 | 0.00 | 0.00 | 0.00 | 69 | 1011.1 |
| 20260905230500 | 87 | 353 | 1.0 | 2.0 | 0.00 | 0.00 | 0.00 | 68 | 1011.0 |
| 20260905225459 | 87 | 131 | 1.0 | 4.0 | 0.00 | 0.00 | 0.00 | 69 | 1010.7 |
| 20260905224513 | 87 | 33 | 1.0 | 4.0 | 0.00 | 0.00 | 0.00 | 69 | 1010.7 |
| 20260905224001 | 87 | 108 | 2.0 | 5.0 | 0.00 | 0.00 | 0.00 | 69 | 1010.6 |
| 20260905223459 | 87 | 89 | 2.0 | 5.0 | 0.00 | 0.00 | 0.00 | 70 | 1010.6 |
| 20260905223021 | 87 | 130 | 1.0 | 6.0 | 0.00 | 0.00 | 0.00 | 70 | 1010.5 |
| 20260905222459 | 87 | 135 | 1.0 | 5.0 | 0.00 | 0.00 | 0.00 | 70 | 1010.4 |
| 20260905222001 | 87 | 137 | 1.0 | 8.0 | 0.00 | 0.00 | 0.00 | 69 | 1010.4 |
| 20260905221514 | 87 | 353 | 2.0 | 8.0 | 0.00 | 0.00 | 0.00 | 68 | 1010.5 |
| 20260905221002 | 87 | 117 | 2.0 | 4.0 | 0.00 | 0.00 | 0.00 | 68 | 1010.6 |
| 20260905220459 | 87 | 135 | 2.0 | 6.0 | 0.00 | 0.00 | 0.00 | 67 | 1010.5 |
| 20260905220021 | 87 | 181 | 2.0 | 6.0 | 0.00 | 0.00 | 0.00 | 67 | 1010.5 |
| 20260905215505 | 87 | 204 | 2.0 | 6.0 | 0.00 | 0.00 | 0.00 | 67 | 1010.5 |
| 20260905215006 | 87 | 353 | 2.0 | 7.0 | 0.00 | 0.00 | 0.00 | 68 | 1010.5 |
| 20260905214519 | 87 | 226 | 2.0 | 7.0 | 0.00 | 0.00 | 0.00 | 67 | 1010.5 |
| 20260905214007 | 87 | 183 | 3.0 | 10.0 | 0.00 | 0.00 | 0.00 | 68 | 1010.4 |
| 20260905213024 | 87 | 138 | 4.0 | 10.0 | 0.00 | 0.00 | 0.00 | 66 | 1010.4 |
| 20260905212504 | 87 | 252 | 3.0 | 9.0 | 0.00 | 0.00 | 0.00 | 67 | 1010.6 |
| 20260905212006 | 88 | 163 | 3.0 | 9.0 | 0.00 | 0.00 | 0.00 | 67 | 1010.6 |
| 20260905211519 | 89 | 198 | 3.0 | 8.0 | 0.00 | 0.00 | 0.00 | 66 | 1010.8 |
| 20260905211005 | 89 | 135 | 2.0 | 7.0 | 0.00 | 0.00 | 0.00 | 63 | 1010.9 |
| 20260905210504 | 89 | 353 | 2.0 | 8.0 | 0.00 | 0.00 | 0.00 | 63 | 1010.9 |
| 20260905210029 | 89 | 353 | 2.0 | 8.0 | 0.00 | 0.00 | 0.00 | 64 | 1010.9 |
| 20260905205010 | 89 | 167 | 2.0 | 6.0 | 0.00 | 0.00 | 0.00 | 65 | 1010.6 |
| 20260905204521 | 89 | 98 | 3.0 | 7.0 | 0.00 | 0.00 | 0.00 | 65 | 1010.5 |
| 20260905203505 | 90 | 166 | 3.0 | 9.0 | 0.00 | 0.00 | 0.00 | 64 | 1010.5 |
| 20260905203026 | 92 | 84 | 3.0 | 9.0 | 0.00 | 0.00 | 0.00 | 64 | 1010.6 |
| 20260905202517 | 92 | 149 | 3.0 | 7.0 | 0.00 | 0.00 | 0.00 | 63 | 1010.8 |
| 20260905202029 | 92 | 80 | 3.0 | 9.0 | 0.00 | 0.00 | 0.00 | 63 | 1010.8 |
| 20260905201024 | 94 | 135 | 2.0 | 7.0 | 0.00 | 0.00 | 0.00 | 59 | 1010.8 |
| 20260905200504 | 95 | 104 | 2.0 | 6.0 | 0.00 | 0.00 | 0.00 | 55 | 1010.8 |
| 20260905200034 | 95 | 92 | 1.0 | 6.0 | 0.00 | 0.00 | 0.00 | 53 | 1011.0 |
| 20260905195505 | 95 | 308 | 1.0 | 4.0 | 0.00 | 0.01 | 0.00 | 56 | 1011.1 |
| 20260905195010 | 95 | 322 | 1.0 | 4.0 | 0.00 | 0.01 | 0.00 | 53 | 1011.0 |
| 20260905194518 | 95 | 44 | 3.0 | 7.0 | 0.00 | 0.01 | 0.00 | 52 | 1011.1 |
| 20260905194004 | 96 | 2 | 3.0 | 7.0 | 0.00 | 0.01 | 0.00 | 52 | 1011.1 |
| 20260905193030 | 96 | 13 | 2.0 | 4.0 | 0.00 | 0.01 | 0.00 | 53 | 1011.3 |
| 20260905192010 | 95 | 67 | 2.0 | 6.0 | 0.00 | 0.01 | 0.00 | 54 | 1011.4 |
| 20260905191524 | 95 | 55 | 3.0 | 8.0 | 0.00 | 0.01 | 0.00 | 54 | 1011.5 |
| 20260905190519 | 95 | 2 | 3.0 | 6.0 | 0.00 | 0.01 | 0.00 | 56 | 1011.6 |
| 20260905190027 | 94 | 358 | 2.0 | 6.0 | 0.00 | 0.01 | 0.00 | 51 | 1011.7 |
| 20260905185502 | 93 | 67 | 1.0 | 3.0 | 0.00 | 0.01 | 0.00 | 56 | 1011.8 |
| 20260905184528 | 93 | 72 | 2.0 | 5.0 | 0.00 | 0.01 | 0.00 | 58 | 1011.8 |
| 20260905184004 | 91 | 163 | 1.0 | 5.0 | 0.00 | 0.01 | 0.00 | 58 | 1011.8 |
| 20260905183511 | 91 | 237 | 1.0 | 3.0 | 0.00 | 0.01 | 0.00 | 55 | 1011.9 |
| 20260905183031 | 92 | 348 | 1.0 | 3.0 | 0.00 | 0.01 | 0.00 | 56 | 1012.1 |
| 20260905182517 | 91 | 71 | 1.0 | 3.0 | 0.00 | 0.01 | 0.00 | 59 | 1012.1 |
| 20260905182003 | 89 | 158 | 1.0 | 4.0 | 0.00 | 0.01 | 0.00 | 65 | 1012.3 |
| 20260905181517 | 87 | 174 | 0.0 | 2.0 | 0.00 | 0.01 | 0.00 | 70 | 1012.4 |
| 20260905181006 | 87 | 133 | 0.0 | 2.0 | 0.00 | 0.01 | 0.00 | 72 | 1012.6 |
| 20260905180503 | 86 | 133 | 1.0 | 2.0 | 0.00 | 0.01 | 0.00 | 70 | 1012.7 |
| 20260905180029 | 86 | 133 | 1.0 | 2.0 | 0.00 | 0.01 | 0.00 | 73 | 1012.8 |
| 20260905175506 | 87 | 142 | 1.0 | 3.0 | 0.00 | 0.95 | 0.00 | 71 | 1012.9 |
| 20260905175009 | 88 | 181 | 1.0 | 3.0 | 0.00 | 0.95 | 0.00 | 65 | 1012.9 |
| 20260905174518 | 89 | 348 | 1.0 | 3.0 | 0.00 | 0.95 | 0.00 | 62 | 1013.1 |
| 20260905174136 | 90 | 261 | 1.0 | 3.0 | 0.00 | 0.95 | 0.00 | 61 | 1013.1 |
| 20260905172004 | 89 | 221 | 1.0 | 3.0 | 0.00 | 0.95 | 0.00 | 61 | 1013.2 |
| 20260905171518 | 89 | 18 | 1.0 | 3.0 | 0.00 | 0.95 | 0.00 | 61 | 1013.3 |
| 20260905170502 | 92 | 353 | 2.0 | 6.0 | 0.00 | 0.95 | 0.00 | 58 | 1013.4 |
| 20260905170030 | 91 | 318 | 2.0 | 4.0 | 0.00 | 0.95 | 0.00 | 59 | 1013.4 |
| 20260905165505 | 90 | 320 | 1.0 | 3.0 | 0.00 | 0.95 | 0.00 | 60 | 1013.3 |
| 20260905164004 | 89 | 152 | 1.0 | 4.0 | 0.00 | 0.95 | 0.00 | 60 | 1013.4 |
| 20260905163026 | 89 | 123 | 2.0 | 6.0 | 0.00 | 0.95 | 0.00 | 61 | 1013.5 |
| 20260905162502 | 89 | 237 | 2.0 | 6.0 | 0.00 | 0.95 | 0.00 | 63 | 1013.6 |
| 20260905162004 | 88 | 343 | 1.0 | 3.0 | 0.00 | 0.95 | 0.00 | 64 | 1013.6 |
| 20260905161518 | 88 | 101 | 1.0 | 3.0 | 0.00 | 0.95 | 0.00 | 63 | 1013.6 |
| 20260905161004 | 86 | 64 | 0.0 | 2.0 | 0.00 | 0.95 | 0.00 | 70 | 1013.6 |
| 20260905160504 | 86 | 195 | 1.0 | 2.0 | 0.00 | 0.95 | 0.00 | 70 | 1013.6 |
| 20260905160029 | 86 | 124 | 1.0 | 3.0 | 0.00 | 0.95 | 0.00 | 70 | 1013.6 |
| 20260905155503 | 87 | 212 | 1.0 | 4.0 | 0.00 | 0.95 | 0.00 | 69 | 1013.6 |
| 20260905155006 | 87 | 110 | 1.0 | 4.0 | 0.00 | 0.95 | 0.00 | 69 | 1013.6 |
| 20260905154518 | 87 | 250 | 1.0 | 4.0 | 0.00 | 0.95 | 0.00 | 70 | 1013.6 |
| 20260905154004 | 86 | 287 | 1.0 | 3.0 | 0.00 | 0.95 | 0.00 | 71 | 1013.6 |
| 20260905153503 | 86 | 175 | 1.0 | 3.0 | 0.00 | 0.95 | 0.00 | 72 | 1013.6 |
| 20260905153027 | 86 | 240 | 1.0 | 3.0 | 0.00 | 0.95 | 0.00 | 71 | 1013.6 |
| 20260905152003 | 85 | 156 | 1.0 | 4.0 | 0.00 | 0.95 | 0.00 | 73 | 1013.6 |
| 20260905151519 | 85 | 274 | 1.0 | 4.0 | 0.00 | 0.95 | 0.00 | 75 | 1013.7 |
| 20260905151004 | 84 | 305 | 1.0 | 3.0 | 0.00 | 0.95 | 0.00 | 76 | 1013.6 |
| 20260905150503 | 85 | 209 | 1.0 | 3.0 | 0.00 | 0.95 | 0.00 | 75 | 1013.6 |
| 20260905150028 | 85 | 254 | 1.0 | 3.0 | 0.00 | 0.95 | 0.00 | 77 | 1013.6 |
| 20260905145504 | 85 | 247 | 1.0 | 3.0 | 0.00 | 0.95 | 0.00 | 78 | 1013.6 |
| 20260905145004 | 84 | 324 | 1.0 | 3.0 | 0.00 | 0.95 | 0.00 | 79 | 1013.5 |
| 20260905144003 | 84 | 291 | 1.0 | 3.0 | 0.00 | 0.95 | 0.00 | 80 | 1013.6 |
| 20260905143503 | 84 | 305 | 1.0 | 2.0 | 0.00 | 0.95 | 0.00 | 81 | 1013.6 |
| 20260905143027 | 83 | 310 | 1.0 | 2.0 | 0.00 | 0.95 | 0.00 | 83 | 1013.6 |
| 20260905142004 | 83 | 214 | 0.0 | 2.0 | 0.00 | 0.95 | 0.00 | 85 | 1013.5 |
| 20260905141519 | 82 | 193 | 1.0 | 3.0 | 0.00 | 0.95 | 0.00 | 86 | 1013.4 |
| 20260905141004 | 82 | 169 | 1.0 | 3.0 | 0.00 | 0.95 | 0.00 | 86 | 1013.5 |
| 20260905140024 | 81 | 336 | 0.0 | 2.0 | 0.00 | 0.95 | 0.00 | 88 | 1013.5 |
| 20260905135002 | 80 | 20 | 0.0 | 1.0 | 0.00 | 0.95 | 0.00 | 90 | 1013.4 |
| 20260905134516 | 80 | 20 | 0.0 | 1.0 | 0.00 | 0.95 | 0.00 | 90 | 1013.4 |
| 20260905133501 | 79 | 54 | 0.0 | 2.0 | 0.00 | 0.95 | 0.00 | 91 | 1013.3 |
| 20260905133024 | 79 | 12 | 0.0 | 1.0 | 0.00 | 0.95 | 0.00 | 91 | 1013.3 |
| 20260905132003 | 79 | 12 | 1.0 | 3.0 | 0.00 | 0.95 | 0.00 | 92 | 1013.3 |
| 20260905131516 | 78 | 103 | 0.0 | 2.0 | 0.00 | 0.95 | 0.00 | 92 | 1013.3 |
| 20260905131003 | 78 | 177 | 0.0 | 1.0 | 0.00 | 0.95 | 0.00 | 92 | 1013.3 |
| 20260905130502 | 78 | 177 | 0.0 | 1.0 | 0.00 | 0.95 | 0.00 | 92 | 1013.3 |
| 20260905130027 | 78 | 177 | 0.0 | 1.0 | 0.00 | 0.95 | 0.00 | 92 | 1013.2 |
| 20260905124517 | 77 | 177 | 0.0 | 0.0 | 0.00 | 0.95 | 0.00 | 92 | 1013.0 |
| 20260905123502 | 76 | 177 | 0.0 | 0.0 | 0.00 | 0.95 | 0.00 | 92 | 1012.9 |
| 20260905123025 | 76 | 177 | 0.0 | 0.0 | 0.00 | 0.95 | 0.00 | 92 | 1012.8 |
| 20260905122501 | 76 | 177 | 0.0 | 0.0 | 0.00 | 0.95 | 0.00 | 92 | 1012.8 |
| 20260905122004 | 76 | 177 | 0.0 | 0.0 | 0.00 | 0.95 | 0.00 | 91 | 1012.7 |
| 20260905121518 | 76 | 177 | 0.0 | 0.0 | 0.00 | 0.95 | 0.00 | 91 | 1012.7 |
| 20260905121003 | 76 | 177 | 0.0 | 0.0 | 0.00 | 0.95 | 0.00 | 91 | 1012.6 |
| 20260905120503 | 76 | 177 | 0.0 | 0.0 | 0.00 | 0.95 | 0.00 | 91 | 1012.6 |
| 20260905120023 | 76 | 177 | 0.0 | 0.0 | 0.00 | 0.95 | 0.00 | 91 | 1012.6 |
| 20260905115504 | 76 | 177 | 0.0 | 0.0 | 0.00 | 0.95 | 0.00 | 91 | 1012.5 |
| 20260905115005 | 76 | 177 | 0.0 | 0.0 | 0.00 | 0.95 | 0.00 | 91 | 1012.4 |
| 20260905114517 | 76 | 177 | 0.0 | 0.0 | 0.00 | 0.95 | 0.00 | 91 | 1012.4 |
| 20260905114004 | 76 | 177 | 0.0 | 0.0 | 0.00 | 0.95 | 0.00 | 91 | 1012.4 |
| 20260905113027 | 76 | 177 | 0.0 | 1.0 | 0.00 | 0.95 | 0.00 | 91 | 1012.2 |
| 20260905112004 | 76 | 177 | 0.0 | 0.0 | 0.00 | 0.95 | 0.00 | 91 | 1012.1 |
| 20260905111516 | 76 | 177 | 0.0 | 0.0 | 0.00 | 0.95 | 0.00 | 91 | 1012.1 |
| 20260905111002 | 76 | 177 | 0.0 | 0.0 | 0.00 | 0.95 | 0.00 | 91 | 1012.1 |
| 20260905110025 | 76 | 177 | 0.0 | 0.0 | 0.00 | 0.96 | 0.00 | 91 | 1011.9 |
| 20260905105501 | 76 | 177 | 0.0 | 1.0 | 0.00 | 0.96 | 0.00 | 91 | 1011.9 |
| 20260905105003 | 76 | 177 | 0.0 | 1.0 | 0.00 | 0.96 | 0.00 | 91 | 1011.9 |
| 20260905104517 | 76 | 177 | 0.0 | 0.0 | 0.00 | 0.96 | 0.00 | 91 | 1011.9 |
| 20260905103024 | 76 | 177 | 0.0 | 0.0 | 0.00 | 0.96 | 0.00 | 91 | 1011.9 |
| 20260905102501 | 76 | 177 | 0.0 | 0.0 | 0.00 | 0.96 | 0.00 | 91 | 1011.8 |
| 20260905101517 | 76 | 177 | 0.0 | 0.0 | 0.00 | 0.96 | 0.00 | 91 | 1011.8 |